Home > Weather > Astrakhan > Past weeks

Flag for Russia Past Weather in Astrakhan, Russia — Yesterday and Last 2 Weeks

Now
73 °F

Clear.


Feels Like: 76 °F
Forecast: 65 / 87 °F
Wind: 6 mph from Northwest

Location: Astrakhan

Current Time: Jul 27, 2016 at 11:17:59 PM

Latest Report: Jul 27, 2016 at 10:30 PM


Visibility: 5 mi

Pressure: 29.92 "Hg

Humidity: 65%

Dew Point: 61 °F

Location of AstrakhanLocation

Past Weather in Astrakhan — Graph

°F

Astrakhan Temperature Yesterday

Maximum temperature yesterday: 86 °F (at 2:30 PM)
Minimum temperature yesterday: 64 °F (at 12:30 AM)
Average temperature yesterday: 75 °F

High & Low Weather Summary for the Past Weeks

 TemperatureHumidityPressure
High104 °F (Jul 16, 1:30 PM)94% (Jul 25, 5:00 PM)30.04 "Hg (Jul 25, 5:00 PM)
Low61 °F (Jul 25, 5:00 PM)14% (Jul 16, 2:00 PM)29.59 "Hg (Jul 19, 9:00 AM)
Average82 °F51%29.82 "Hg
* Reported Jul 12 10:00 PM — Jul 27 10:00 PM, Astrakhan, Weather by CustomWeather, © 2016

Note: Actual official high and low records may vary slightly from our data, if they occured in-between our weather recording intervals... More about our weather records

Advertising

Astrakhan Weather History for the Previous 24 Hours

Scroll right to see more
 ConditionsComfort  
Time TempWeatherWind HumidityBarometerVisibility
10:00 PM
Wed, Jul 27
72 °FClear.6 mph73%29.92 "Hg5 mi
9:00 PM72 °FClear.6 mph78%29.89 "Hg5 mi
8:30 PM75 °FClear.3 mph69%29.89 "Hg10 mi
8:00 PM75 °FSunny.1 mph69%29.89 "Hg10 mi
7:30 PM77 °FSunny.3 mph61%29.89 "Hg10 mi
7:00 PM79 °FSunny.6 mph58%29.89 "Hg10 mi
6:30 PM79 °FPassing clouds.6 mph61%29.89 "HgN/A
6:00 PM79 °FPassing clouds.6 mph54%29.89 "HgN/A
5:30 PM79 °FPassing clouds.3 mph58%29.89 "HgN/A
5:00 PM79 °FPassing clouds.3 mph54%29.89 "HgN/A
4:30 PM81 °FPassing clouds.No wind48%29.89 "HgN/A
4:00 PM81 °FScattered clouds.1 mph54%29.89 "HgN/A
3:30 PM75 °FScattered clouds.6 mph69%29.89 "HgN/A
3:00 PM73 °FThunderstorms. Scattered clouds.8 mph74%29.89 "HgN/A
2:30 PM72 °FThunderstorms. Broken clouds.6 mph78%29.89 "Hg5 mi
2:00 PM77 °FThunderstorms. Partly sunny.17 mph54%29.89 "HgN/A
1:30 PM86 °FThunderstorms. Scattered clouds.8 mph38%29.89 "HgN/A
1:00 PM84 °FScattered clouds.10 mph40%29.89 "HgN/A
12:00 PM82 °FPassing clouds.8 mph45%29.89 "HgN/A
11:30 AM82 °FPassing clouds.6 mph45%29.89 "HgN/A
11:00 AM82 °FPassing clouds.6 mph45%29.89 "HgN/A
10:30 AM81 °FPassing clouds.3 mph51%29.89 "HgN/A
10:00 AM79 °FPassing clouds.6 mph54%29.89 "HgN/A
9:30 AM79 °FPassing clouds.3 mph58%29.89 "HgN/A
9:00 AM77 °FSunny.6 mph61%29.89 "Hg10 mi
8:30 AM75 °FSunny.1 mph65%29.89 "Hg10 mi
8:00 AM73 °FSunny.3 mph69%29.89 "Hg10 mi
7:30 AM72 °FPassing clouds.3 mph73%29.89 "HgN/A
7:00 AM72 °FPassing clouds.3 mph73%29.86 "HgN/A
6:30 AM68 °FPassing clouds.3 mph83%29.86 "HgN/A
6:00 AM68 °FSunny.6 mph83%29.86 "Hg10 mi
5:30 AM68 °FSunny.3 mph78%29.86 "Hg10 mi
5:00 AM68 °FClear.3 mph78%29.86 "Hg10 mi
4:30 AM68 °FPassing clouds.3 mph78%29.86 "HgN/A
4:00 AM68 °FClear.3 mph78%29.86 "Hg10 mi
3:30 AM70 °FClear.3 mph78%29.83 "Hg10 mi
3:00 AM70 °FClear.3 mph78%29.83 "Hg10 mi
2:30 AM70 °FClear.3 mph78%29.83 "Hg10 mi
2:00 AM70 °FClear.1 mph78%29.83 "Hg10 mi
1:30 AM70 °FClear.3 mph78%29.83 "Hg10 mi
1:00 AM68 °FClear.1 mph83%29.83 "Hg10 mi
12:30 AM72 °FClear.1 mph73%29.83 "Hg10 mi
12:00 AM72 °FClear.1 mph73%29.83 "Hg10 mi
11:00 PM
Tue, Jul 26
72 °FClear.1 mph73%29.83 "Hg10 mi
Weather by CustomWeather, © 2016

See weather overviewHow to use our weather pages